RS-44 & BREEZE-KM R/B

Last updated on Tue Aug 25 2026 00:03:14 GMT+0000 (Coordinated Universal Time)

1 44909U 19096E 26236.56860520 .00000024 00000+0 56238-4 0 9995 2 44909 82.5211 294.2737 0217113 344.7890 14.6749 12.79748916311090
UTC large
Height (km)
Speed (km/s)
/
Latitude / Longitude
Inclination (degrees)
Orbital Period (minutes)
Azimuth
Elevation
Range (km)
Doppler Factor

Next 0 passes for location: London (51.5072 / 0.1276)

No passes found over London.
RS-44 & BREEZE-KM R/B